Current Version              Previous Version:    01  02  03  04  05  06  07  08  09  10  11  12  13  14  15  16  17  18  19  20  21  22  23  24  25  26  27  28  29  30  
   31  32  33  34  35  36  37  38  39  40  41  42  43  44  45  46  47  48  49  50  51  52  53  54  55  56  57  58  59  60  

[Printable]
040
ASUS44 KEWX 271110
RWRTX
SOUTH TEXAS REGIONAL WEATHER ROUNDUP
NATIONAL WEATHER SERVICE AUSTIN/SAN ANTONIO TX
500 AM CST THU NOV 27 2014

NOTE: "FAIR" INDICATED FEW OR NO CLOUDS BELOW 12,000 FEET WITH NO
SIGNIFICANT WEATHER AND/OR OBSTRUCTIONS TO VISIBILITY.

* - THESE STATIONS ARE NOT NWS OR FAA STATIONS...AND ARE NOT SUBJECT
    TO NWS AND FAA QUALITY CONTROL.

TXZ171-172-183>190-271200-
TEXAS HILL COUNTRY AND EDWARDS PLATEAU

CITY           SKY/WX    TMP DP  RH WIND       PRES   REMARKS
JUNCTION       CLEAR     33  29  85 CALM      30.42R
*LLANO         CLEAR     36  32  87 CALM      30.47R
BURNET         CLEAR     45  33  63 N8        30.44R WCI  41
*HORSESHOE BAY CLEAR     36  36 100 S3        30.43S
*KERRVILLE     CLEAR     36  33  88 CALM      30.41S
*FREDERICKSBRG CLEAR     35  32  90 CALM      30.41R
*ROCKSPRINGS   CLEAR     41  32  70 MISG      30.41S
*BOERNE STAGE  CLEAR     36  32  87 N3        30.42R
*CASTROVILLE   CLEAR     48  34  57 E9        30.41R WCI  44
HONDO          CLEAR     40  32  73 NE8       30.41R WCI  34
*UVALDE        CLEAR     49  32  51 NE10      30.38R WCI  45
DEL RIO        CLEAR     41  35  79 W5        30.37R WCI  38
LAUGHLIN AFB   CLEAR     43  33  68 NW2       30.36R
CARRIZO SPRGS  CLEAR     41  36  81 NE3       30.35S
$$

TXZ173-191>194-202-209-217>225-228-271200-
CENTRAL AND SOUTH CENTRAL TEXAS

CITY           SKY/WX    TMP DP  RH WIND       PRES   REMARKS
GEORGETOWN     CLEAR     43  34  70 N5        30.44R WCI  40
AUSTIN/BERGSTM CLEAR     41  36  82 N8        30.43R WCI  36
AUSTIN/MABRY   CLEAR     48  36  63 N6        30.43R WCI  45
*AUSTIN/EXEC   CLEAR     45  36  70 N10       30.44R WCI  39
*LAGO VISTA    CLEAR     46  34  62 NE10      30.42S WCI  41
SAN MARCOS     CLEAR     45  36  70 N9        30.43R WCI  40
NEW BRAUNFELS  CLEAR     49  36  61 N12       30.40R WCI  44
RANDOLPH AFB   CLEAR     49  35  57 N9        30.40S WCI  46
PT SAN ANTONIO CLEAR     44  35  72 N7        30.38R WCI  40
SAN ANTONIO    CLEAR     48  36  63 N6        30.40S WCI  45
STINSON FIELD  CLEAR     52  36  54 NE9       30.38R
*PLEASANTON    CLEAR     48  35  60 N7        30.38S WCI  45
*LA GRANGE     CLEAR     43  39  86 CALM      30.40R
*GIDDINGS      CLEAR     46  36  67 NE5       30.45R WCI  44
*GONZALES      CLEAR     43  37  79 N5        30.39S WCI  40
$$

TXZ163>164-176>182-195>201-210>213-226-227-235-271200-
SOUTHEAST TEXAS

CITY           SKY/WX    TMP DP  RH WIND       PRES   REMARKS
COLLEGE STN    CLEAR     48  35  60 N10       30.42R WCI  43
*BRYAN         CLEAR     42  35  74 N5        30.44R WCI  40
*CALDWELL      CLEAR     41  36  81 CALM      30.46R
*CROCKETT      CLEAR     46  34  61 NE9       30.47R WCI  42
*BRENHAM       CLEAR     45  37  74 CALM      30.43R
HUNTSVILLE     CLEAR     42  36  79 N3        30.42R
CONROE         CLEAR     45  35  68 N3        30.41R
HOUSTON BUSH   CLEAR     44  38  79 N6        30.41R WCI  41
HOUSTON HOBBY  CLEAR     48  40  73 N6        30.39R WCI  45
*HOUSTON SW AP CLEAR     46  40  77 N5        30.40R WCI  44
PEARLAND       CLEAR     51  41  68 NE12      30.40R
HOUSTON HOOKS  CLEAR     42  40  92 N3        30.41R
ELLINGTON FLD  NOT AVBL
SUGAR LAND     CLEAR     47  38  71 N7        30.39R WCI  44
*HOUSTON EXEC  CLEAR     41  37  87 N5        30.42R WCI  38
*CLEVELAND MUN CLEAR     37  37 100 CALM      30.42R
*WHARTON       CLEAR     48  39  72 NE5       30.39R WCI  46
*COLUMBUS      FAIR      43  38  82 CALM      30.40R
$$

TXZ214>216-236>238-271200-
THE UPPER TEXAS COAST

CITY           SKY/WX    TMP DP  RH WIND       PRES   REMARKS
*ORANGE        CLEAR     40  40 100 CALM      30.41R
PORT ARTHUR    CLEAR     42  39  89 N5        30.39R WCI  39
GALVESTON      CLEAR     55  47  74 N10       30.39R
ANGLETON       CLEAR     42  42 100 N6        30.38R WCI  38
*BAY CITY        N/A     50  46  87 NE6       30.37S WCI  48
PALACIOS       CLEAR     47  45  93 N3        30.37R
$$

TXZ229>234-239>247-271200-
TEXAS COASTAL BEND AND RIO GRANDE PLAINS

CITY           SKY/WX    TMP DP  RH WIND       PRES   REMARKS
VICTORIA       CLEAR     45  40  82 N8        30.38R WCI  41
*BEEVILLE      CLEAR     47  41  81 NE5       30.36R WCI  44
ROCKPORT       CLEAR     52  49  89 N6        30.36R
*PORT ARANSAS  CLEAR     54  53  97 N3        30.35R
*PORT LAVACA   NOT AVBL
*INGLESIDE     CLEAR     49  47  93 N7        30.35R WCI  45
CORPUS CHRISTI CLEAR     47  45  93 N5        30.34S WCI  45
CORPUS NAS     CLEAR     52  52 100 CALM      30.34
*ROBSTOWN      NOT AVBL
ALICE          CLEAR     42  40  92 N3        30.33S
KINGSVILLE NAS CLEAR     45  44  97 N3        30.35R
COTULLA        CLEAR     50  36  58 NE10      30.36S WCI  46
*FAITH RANCH   CLEAR     46  32  57 NE8       30.35S WCI  42
LAREDO         CLEAR     48  37  65 NE7       30.35R WCI  45
$$

TXZ248>255-271200-
DEEP SOUTH TEXAS

CITY           SKY/WX    TMP DP  RH WIND       PRES   REMARKS
BROWNSVILLE    PTCLDY    47  47 100 CALM      30.33S FOG
PORT ISABEL    CLEAR     51  50  96 CALM      30.33R FOG
*SOUTH PADRE   CLEAR    N/A N/A N/A CALM      30.33R
HARLINGEN      FOG       46  46 100 CALM      30.32S VSB 1/4
*HEBBRONVILLE  CLEAR     45  39  80 NW7       30.33S WCI  41
MCALLEN        CLEAR     48  47  96 CALM      30.33S
*WESLACO       CLEAR     46  44  93 CALM      30.33R FOG
FALFURRIAS     CLEAR     44  41  91 CALM      30.34R
EDINBURG       CLEAR     45  43  93 CALM      30.33S
*ZAPATA        CLEAR     42  42  99 CALM      30.31R
$$

TXZ213>215-236>238-242>244-246-247-251-254-255-271200-
CMAN STATIONS

STATION/POSITION TIME  TEMP    WIND        PRES    WAVE
                       AIR SEA DIR/SP/G            HT/PER
                 (UTC) (F)     (DEG/KT/KT) (MB)    (FT/S)
SABINE PASS      1100   55 58   10/  4/  6 1028.9
SEA RIM ST PARK  1100   50     350/  6/  6 1029.8
NORTH JETTY/GLS  1100   58 60   60/ 14/ 16   N/A
EAGLE POINT      1100   57 58   40/  9/ 12 1029.0
MORGANS POINT    1100   54      20/  4/  6 1029.1
MISSION/ARANSAS  1000   56     340/  6     1029.0
PORT O`CONNOR    1100          350/ 10/ 11   N/A
PORT ARANSAS     1100   58 62  330/  5/  5 1028.1
MALAQUITE BEACH  1100   58 62  220/  7/  8 1026.8
BAFFIN BAY       1100   59 72  190/  2/  3 1027.3
PORT ISABEL      1100   58 63  190/  2/  3 1026.9
$$

GMZ080-GMZ150>470-271200-
OFFSHORE BUOY REPORTS

STATION/POSITION TIME  TEMP    WIND        PRES    WAVE
                       AIR SEA DIR/SP/G            HT/PER
                 (UTC) (F)     (DEG/KT/KT) (MB)    (FT/S)
20 E GALVESTON   1100   60 61   30/ 16/ 17 1028.0    2/ 5
90 E PT ARANSAS  1100   70 72  310/  6/  8 1027.9    2/ 5
35 NE PT MANSFLD 1100   69 73  210/  6/  8 1027.1    3/ 8
200 E PT ISABEL  1100   69 74  350/  4/  6 1027.5    2/ 6
$$